Frisco, NC

5:11 PM EST on December 08, 2016 (GMT -0500)
Mitchell

Weather History for KHSE - December, 2011

Change the Weather History Date:

Monday, December 26, 2011

  Actual Average Record
Temperature  
Mean Temperature 50 °F 47 °F  
Max Temperature 55 °F 54 °F 74 °F (1964)
Min Temperature 45 °F 40 °F 15 °F (1983)
Degree Days  
Heating Degree Days 15 18  
Month to date heating degree days 267 397  
Since 1 July heating degree days 525 715  
Cooling Degree Days 0 0  
Month to date cooling degree days 3 0  
Year to date cooling degree days 2381 1711  
Moisture  
Dew Point 36 °F    
Average Humidity 62    
Maximum Humidity 77    
Minimum Humidity 46    
Precipitation  
Precipitation 0.00 in 0.14 in 2.14 in (1943)
Month to date precipitation 0.96 3.57  
Year to date precipitation 61.11 57.34  
Snow  
Snow 0.00 in - - ()
Month to date snowfall 0.0  
Since 1 July snowfall 0.0  
Snow Depth 0.00 in    
Sea Level Pressure  
Sea Level Pressure 30.25 in    
Wind  
Wind Speed 9 mph (North)    
Max Wind Speed 17 mph    
Max Gust Speed 28 mph    
Visibility 10 miles    
Events      
T = Trace of Precipitation, MM = Missing Value Source: NWS Daily Summary

Daily Weather History Graph

Daily Weather History Graph

Search for Another Location

Airport or City:

Trip Planner

Search our weather history database for the weather conditions in past years. The results will help you decide how hot, cold, wet, or windy it might be!

Date:

Astronomy

Dec. 26, 2011 Rise Set
Actual Time 7:09 AM EST 4:56 PM EST
Civil Twilight 6:41 AM EST 5:25 PM EST
Nautical Twilight 6:09 AM EST 5:56 PM EST
Astronomical Twilight 5:38 AM EST 6:27 PM EST
Moon 8:31 AM EST (12/26) 7:17 PM EST (12/26)
Length of Visible Light 10h 43m
Length of Day
9h 47m
Waxing Crescent, 5% of the Moon is Illuminated
Dec 26
Waxing Crescent
Jan 1
First Quarter
Jan 9
Full
Jan 16
Last Quarter
Jan 23
New

Hourly Weather History & Observations

Time (EST) Temp. Windchill Dew Point Humidity Pressure Visibility Wind Dir Wind Speed Gust Speed Precip Events Conditions
12:51 AM 53.1 °F - 46.0 °F 77% 30.09 in 10.0 mi West 13.8 mph 26.5 mph N/A   Clear
1:51 AM 52.0 °F - 45.0 °F 77% 30.09 in 10.0 mi WNW 11.5 mph 24.2 mph N/A   Clear
2:51 AM 52.0 °F - 41.0 °F 66% 30.10 in 10.0 mi WNW 10.4 mph 25.3 mph N/A   Clear
3:51 AM 51.1 °F - 37.9 °F 61% 30.12 in 10.0 mi NW 16.1 mph 26.5 mph N/A   Clear
4:51 AM 50.0 °F - 37.0 °F 61% 30.14 in 10.0 mi NW 11.5 mph 24.2 mph N/A   Clear
5:51 AM 48.9 °F - 37.0 °F 64% 30.17 in 10.0 mi NNW 12.7 mph 23.0 mph N/A   Clear
6:51 AM 48.0 °F - 35.1 °F 61% 30.20 in 10.0 mi NNW 10.4 mph 18.4 mph N/A   Clear
7:51 AM 48.0 °F - 34.0 °F 58% 30.23 in 10.0 mi NNW 10.4 mph 23.0 mph N/A   Clear
8:51 AM 48.9 °F - 34.0 °F 56% 30.27 in 10.0 mi Variable 6.9 mph - N/A   Clear
9:51 AM 51.1 °F - 36.0 °F 56% 30.29 in 10.0 mi Variable 5.8 mph - N/A   Clear
10:51 AM 52.0 °F - 35.1 °F 53% 30.30 in 10.0 mi North 10.4 mph 21.9 mph N/A   Clear
11:51 AM 52.0 °F - 35.1 °F 53% 30.30 in 10.0 mi North 8.1 mph 21.9 mph N/A   Clear
12:51 PM 52.0 °F - 34.0 °F 50% 30.28 in 10.0 mi North 13.8 mph 24.2 mph N/A   Clear
1:51 PM 52.0 °F - 32.0 °F 47% 30.28 in 10.0 mi North 11.5 mph 21.9 mph N/A   Clear
2:51 PM 51.1 °F - 32.0 °F 48% 30.31 in 10.0 mi NNE 9.2 mph 19.6 mph N/A   Clear
3:51 PM 50.0 °F - 30.9 °F 48% 30.30 in 10.0 mi NNE 11.5 mph 19.6 mph N/A   Clear
4:51 PM 48.0 °F - 33.1 °F 56% 30.31 in 10.0 mi Variable 6.9 mph 17.3 mph N/A   Clear
5:51 PM 46.9 °F - 34.0 °F 61% 30.34 in 10.0 mi NNE 4.6 mph - N/A   Clear
6:51 PM 48.0 °F - 35.1 °F 61% 30.34 in 10.0 mi NE 8.1 mph - N/A   Clear
7:51 PM 46.9 °F - 36.0 °F 66% 30.35 in 10.0 mi NE 3.5 mph - N/A   Clear
8:51 PM 46.9 °F - 36.0 °F 66% 30.35 in 10.0 mi NNE 4.6 mph - N/A   Clear
9:51 PM 46.9 °F - 37.0 °F 68% 30.32 in 10.0 mi NNE 3.5 mph - N/A   Clear
10:51 PM 46.0 °F 44.8 °F 37.0 °F 71% 30.32 in 10.0 mi NNE 3.5 mph - N/A   Clear
11:51 PM 45.0 °F 42.6 °F 37.0 °F 74% 30.28 in 10.0 mi NE 4.6 mph - N/A   Clear